Flag for U.S.A. Weather past 2 weeks in Wichita, Kansas, U.S.A.

Now
83 °F

Scattered clouds.


Feels Like: 81 °F
Forecast: 59 / 78 °F
Wind: 14 mph from Northeast

Location: Wichita Mid-Continent Airport

Current Time: Sep 21, 2014 at 2:01:35 PM

Latest Report: Sep 21, 2014 at 12:53 PM


Visibility: 10 mi

Pressure: 30.17 "Hg

Humidity: 24%

Dew point: 42 °F

Location of WichitaLocation

Historic Weather in Wichita — Graph

°F

Wichita temperature yesterday

Maximum temperature yesterday: 93 °F (at 4:53 PM)
Minimum temperature yesterday: 67 °F (at 6:53 AM)
Average temperature yesterday: 79 °F

Past Weeks' High & Low Weather Summary

 TemperatureHumidityPressure
High98 °F (Sep 9, 2:53 PM)94% (Sep 8, 7:53 AM)30.43 "Hg (Sep 8, 7:53 AM)
Low43 °F (Sep 13, 6:53 AM)24% (Sep 21, 11:53 AM)29.53 "Hg (Sep 10, 12:53 AM)
Average71 °F64%30.02 "Hg
* Reported Sep 6 12:53 PM — Sep 21 12:53 PM, Wichita, Weather by CustomWeather, © 2014

Note: Actual official high and low records may vary slightly from our data, if they occured in-between our weather recording intervals... More about our weather records

Advertising

Wichita weather history for previous 24 hours

 ConditionsComfort  
Time TempWeatherWind HumidityBarometerVisibility
12:53 PM
Sep 21
83 °FScattered clouds.14 mph24%30.17 "Hg10 mi
11:53 AM81 °FScattered clouds.17 mph24%30.19 "Hg10 mi
10:53 AM78 °FScattered clouds.20 mph33%30.18 "Hg10 mi
9:53 AM73 °FScattered clouds.13 mph43%30.17 "Hg10 mi
8:53 AM71 °FScattered clouds.13 mph53%30.15 "Hg10 mi
7:53 AM67 °FPassing clouds.12 mph63%30.12 "Hg10 mi
6:53 AM68 °FPassing clouds.16 mph63%30.09 "Hg10 mi
5:53 AM70 °FPassing clouds.14 mph64%30.07 "Hg10 mi
4:53 AM73 °FPassing clouds.15 mph74%30.04 "Hg10 mi
3:53 AM74 °FPassing clouds.3 mph82%30.01 "Hg10 mi
2:53 AM75 °FPartly cloudy.5 mph79%30.01 "Hg10 mi
1:53 AM75 °FOvercast.3 mph82%30.01 "Hg10 mi
12:53 AM74 °FMostly cloudy.No wind85%30.00 "Hg10 mi
11:53 PM
Sep 20
75 °FMostly cloudy.6 mph82%29.99 "Hg10 mi
10:53 PM73 °FPartly cloudy.No wind84%29.95 "Hg10 mi
9:53 PM74 °FPartly cloudy.10 mph85%29.94 "Hg10 mi
8:53 PM81 °FThunderstorms. Partly cloudy.5 mph53%29.97 "Hg10 mi
7:53 PM82 °FScattered clouds.6 mph48%29.91 "Hg10 mi
6:53 PM88 °FScattered clouds.8 mph39%29.90 "Hg10 mi
5:53 PM91 °FScattered clouds.10 mph33%29.89 "Hg10 mi
4:53 PM93 °FScattered clouds.10 mph31%29.89 "Hg10 mi
3:53 PM91 °FScattered clouds.12 mph36%29.90 "Hg10 mi
2:53 PM91 °FScattered clouds.16 mph37%29.91 "Hg10 mi
Weather by CustomWeather, © 2014

See weather overviewHow to use our weather pages